QPF
0.07 0.09 0.10 0.11 0.13 0.18 0.17 0.13 0.08 0.08 0.07 0.07 0.05 0.03 0.02 0.03 0.04 0.04 0.04 0.04 0.04 0.04 0.04 0.06 0.05 0.04 0.03 0.04 0.07 0.08 0.08 0.10 0.09 0.08 0.09 0.10 0.08 0.11 0.14 0.12 0.08 0.06 0.05
0.08 0.07 0.07 0.07 0.08 0.08 0.06 0.06 0.06 0.09 0.08 0.07 0.04 0.02 0.01 0.02 0.03 0.05 0.06 0.06 0.06 0.05 0.05 0.06 0.05 0.04 0.04 0.05 0.06 0.06 0.05 0.05 0.05 0.04 0.04 0.04 0.05 0.09 0.12 0.13 0.11 0.08 0.06
0.07 0.08 0.07 0.06 0.06 0.06 0.06 0.06 0.10 0.09 0.07 0.05 0.04 0.03 0.03 0.02 0.03 0.04 0.06 0.08 0.09 0.08 0.07 0.06 0.05 0.05 0.06 0.07 0.08 0.08 0.06 0.04 0.04 0.04 0.03 0.03 0.03 0.04 0.05 0.06 0.11 0.08 0.07
0.06 0.07 0.08 0.09 0.08 0.07 0.09 0.09 0.10 0.09 0.08 0.06 0.06 0.06 0.05 0.06 0.05 0.05 0.06 0.08 0.09 0.09 0.07 0.05 0.05 0.06 0.06 0.07 0.09 0.08 0.06 0.04 0.03 0.04 0.04 0.04 0.04 0.04 0.04 0.04 0.07 0.07 0.07
0.05 0.07 0.06 0.08 0.09 0.09 0.09 0.08 0.10 0.11 0.10 0.10 0.09 0.08 0.07 0.06 0.06 0.04 0.05 0.09 0.10 0.09 0.10 0.06 0.06 0.07 0.06 0.07 0.07 0.08 0.07 0.03 0.03 0.03 0.04 0.04 0.03 0.02 0.03 0.03 0.05 0.05 0.06
0.05 0.05 0.07 0.08 0.08 0.08 0.08 0.08 0.10 0.10 0.10 0.09 0.07 0.07 0.06 0.04 0.05 0.04 0.05 0.07 0.07 0.08 0.09 0.07 0.08 0.07 0.05 0.03 0.03 0.04 0.04 0.04 0.03 0.04 0.03 0.03 0.03 0.04 0.03 0.04 0.05 0.05 0.04
0.05 0.06 0.08 0.10 0.11 0.10 0.08 0.08 0.10 0.10 0.08 0.08 0.09 0.08 0.07 0.06 0.05 0.05 0.07 0.07 0.07 0.08 0.09 0.09 0.10 0.10 0.06 0.03 0.02 0.02 0.03 0.03 0.03 0.03 0.02 0.02 0.03 0.04 0.04 0.03 0.03 0.03 0.03
0.05 0.06 0.07 0.10 0.12 0.11 0.08 0.09 0.10 0.10 0.09 0.09 0.12 0.13 0.13 0.12 0.09 0.09 0.10 0.10 0.10 0.10 0.11 0.09 0.09 0.12 0.11 0.08 0.05 0.04 0.04 0.05 0.05 0.05 0.04 0.06 0.05 0.04 0.03 0.03 0.02 0.02 0.02
0.03 0.04 0.06 0.09 0.12 0.08 0.09 0.09 0.08 0.09 0.09 0.10 0.12 0.13 0.13 0.13 0.12 0.11 0.10 0.10 0.12 0.13 0.13 0.13 0.12 0.12 0.12 0.09 0.07 0.06 0.04 0.04 0.05 0.06 0.06 0.05 0.04 0.03 0.03 0.02 0.02 0.02 0.02
0.03 0.03 0.05 0.08 0.10 0.08 0.09 0.07 0.08 0.11 0.11 0.10 0.10 0.11 0.11 0.11 0.12 0.12 0.12 0.12 0.13 0.14 0.14 0.14 0.13 0.13 0.10 0.09 0.07 0.07 0.05 0.04 0.04 0.05 0.05 0.04 0.03 0.02 0.02 0.01 0.02 0.03 0.03
0.04 0.03 0.04 0.07 0.09 0.08 0.08 0.07 0.09 0.10 0.09 0.09 0.10 0.11 0.11 0.13 0.12 0.12 0.10 0.10 0.11 0.13 0.12 0.13 0.12 0.11 0.10 0.08 0.07 0.06 0.05 0.04 0.03 0.04 0.04 0.03 0.03 0.04 0.04 0.03 0.03 0.03 0.04
0.05 0.03 0.03 0.05 0.05 0.06 0.06 0.06 0.08 0.09 0.10 0.10 0.12 0.11 0.12 0.13 0.12 0.11 0.09 0.10 0.11 0.10 0.08 0.08 0.08 0.08 0.07 0.06 0.06 0.06 0.05 0.04 0.02 0.02 0.03 0.03 0.03 0.03 0.04 0.03 0.02 0.03 0.04
0.07 0.04 0.04 0.04 0.04 0.05 0.05 0.05 0.07 0.09 0.11 0.12 0.13 0.13 0.12 0.11 0.11 0.10 0.09 0.10 0.11 0.09 0.09 0.06 0.05 0.06 0.08 0.09 0.08 0.06 0.04 0.03 0.03 0.03 0.02 0.03 0.03 0.02 0.02 0.03 0.03 0.03 0.04
0.07 0.07 0.06 0.04 0.04 0.04 0.05 0.06 0.07 0.09 0.12 0.11 0.10 0.12 0.13 0.12 0.11 0.09 0.08 0.10 0.09 0.06 0.07 0.05 0.04 0.05 0.07 0.09 0.11 0.10 0.06 0.05 0.03 0.02 0.02 0.03 0.04 0.04 0.05 0.05 0.05 0.04 0.04
0.06 0.06 0.05 0.04 0.04 0.05 0.07 0.07 0.07 0.08 0.10 0.09 0.08 0.10 0.09 0.09 0.09 0.08 0.08 0.09 0.09 0.07 0.06 0.05 0.04 0.05 0.06 0.06 0.06 0.05 0.04 0.04 0.03 0.03 0.03 0.04 0.07 0.07 0.08 0.06 0.04 0.04 0.04
0.03 0.03 0.05 0.05 0.06 0.06 0.07 0.07 0.07 0.07 0.07 0.07 0.06 0.06 0.07 0.06 0.07 0.07 0.07 0.08 0.10 0.10 0.08 0.06 0.07 0.08 0.08 0.06 0.05 0.03 0.03 0.04 0.04 0.04 0.04 0.04 0.06 0.08 0.07 0.05 0.04 0.04 0.03
0.03 0.03 0.05 0.06 0.06 0.05 0.05 0.06 0.05 0.04 0.04 0.04 0.04 0.05 0.06 0.06 0.06 0.05 0.06 0.07 0.08 0.09 0.08 0.08 0.08 0.07 0.06 0.04 0.05 0.04 0.04 0.05 0.05 0.04 0.04 0.04 0.05 0.09 0.08 0.06 0.06 0.05 0.04
0.03 0.03 0.04 0.05 0.05 0.04 0.04 0.03 0.03 0.03 0.03 0.03 0.04 0.06 0.06 0.07 0.07 0.07 0.07 0.07 0.07 0.09 0.08 0.07 0.07 0.06 0.07 0.07 0.08 0.07 0.05 0.05 0.05 0.05 0.04 0.05 0.05 0.08 0.09 0.07 0.06 0.06 0.05
0.02 0.03 0.03 0.03 0.04 0.03 0.04 0.04 0.04 0.04 0.04 0.04 0.05 0.05 0.05 0.06 0.06 0.07 0.07 0.07 0.07 0.06 0.07 0.06 0.06 0.07 0.08 0.08 0.07 0.06 0.05 0.05 0.04 0.05 0.05 0.04 0.04 0.06 0.09 0.08 0.06 0.05 0.05
0.02 0.02 0.02 0.03 0.03 0.04 0.04 0.05 0.05 0.05 0.05 0.07 0.07 0.06 0.06 0.05 0.06 0.07 0.07 0.07 0.07 0.07 0.07 0.07 0.06 0.06 0.05 0.06 0.07 0.06 0.06 0.04 0.03 0.03 0.03 0.03 0.03 0.04 0.08 0.10 0.09 0.07 0.07
0.02 0.02 0.02 0.02 0.02 0.02 0.03 0.04 0.06 0.06 0.07 0.08 0.08 0.07 0.06 0.06 0.06 0.07 0.06 0.06 0.07 0.08 0.08 0.08 0.06 0.06 0.05 0.06 0.05 0.06 0.06 0.05 0.04 0.03 0.03 0.03 0.03 0.03 0.04 0.07 0.08 0.09 0.10
0.03 0.03 0.02 0.02 0.02 0.01 0.01 0.02 0.03 0.05 0.07 0.08 0.07 0.07 0.06 0.05 0.04 0.03 0.03 0.03 0.04 0.05 0.06 0.08 0.08 0.07 0.06 0.06 0.07 0.07 0.06 0.07 0.06 0.04 0.04 0.04 0.04 0.04 0.03 0.04 0.04 0.05 0.06
0.04 0.03 0.04 0.04 0.04 0.04 0.03 0.03 0.04 0.05 0.08 0.07 0.05 0.05 0.04 0.03 0.04 0.03 0.03 0.02 0.03 0.02 0.03 0.05 0.07 0.07 0.07 0.08 0.10 0.07 0.07 0.07 0.06 0.05 0.06 0.05 0.04 0.06 0.04 0.03 0.03 0.04 0.05
0.03 0.03 0.04 0.05 0.05 0.05 0.05 0.05 0.04 0.04 0.06 0.07 0.05 0.04 0.04 0.03 0.02 0.03 0.04 0.05 0.04 0.03 0.03 0.04 0.05 0.04 0.06 0.08 0.10 0.09 0.09 0.08 0.07 0.05 0.06 0.06 0.05 0.06 0.05 0.03 0.04 0.04 0.04
0.04 0.04 0.04 0.04 0.04 0.04 0.04 0.03 0.02 0.03 0.04 0.05 0.05 0.05 0.05 0.04 0.04 0.04 0.05 0.05 0.04 0.03 0.03 0.03 0.03 0.03 0.04 0.05 0.06 0.08 0.08 0.09 0.09 0.08 0.07 0.08 0.06 0.07 0.08 0.07 0.06 0.06 0.06
0.04 0.04 0.03 0.04 0.04 0.04 0.03 0.02 0.02 0.03 0.05 0.04 0.05 0.05 0.06 0.06 0.05 0.04 0.04 0.05 0.05 0.04 0.03 0.04 0.04 0.03 0.03 0.04 0.06 0.07 0.08 0.10 0.09 0.08 0.06 0.08 0.07 0.09 0.09 0.09 0.08 0.07 0.06
MSLP
1010.97 1010.91 1010.84 1010.78 1010.78 1010.84 1010.97 1011.16 1011.36 1011.53 1011.65 1011.70 1011.69 1011.64 1011.60 1011.61 1011.70 1011.91 1012.21 1012.58 1012.99 1013.40 1013.77 1014.08 1014.32 1014.52 1014.67 1014.82 1014.96 1015.12 1015.28 1015.45 1015.62 1015.77 1015.91 1016.04 1016.15 1016.24 1016.33 1016.39 1016.44 1016.46 1016.45
1010.82 1010.77 1010.71 1010.65 1010.64 1010.67 1010.77 1010.90 1011.05 1011.18 1011.27 1011.31 1011.30 1011.26 1011.23 1011.24 1011.33 1011.52 1011.80 1012.15 1012.55 1012.97 1013.36 1013.71 1014.01 1014.25 1014.45 1014.61 1014.75 1014.87 1014.99 1015.10 1015.21 1015.32 1015.43 1015.54 1015.65 1015.77 1015.87 1015.96 1016.03 1016.06 1016.06
1010.72 1010.69 1010.66 1010.62 1010.61 1010.63 1010.69 1010.77 1010.86 1010.94 1010.99 1011.00 1010.98 1010.94 1010.90 1010.90 1010.96 1011.11 1011.34 1011.64 1012.01 1012.41 1012.81 1013.20 1013.55 1013.86 1014.12 1014.32 1014.48 1014.61 1014.70 1014.77 1014.83 1014.90 1014.98 1015.08 1015.19 1015.31 1015.43 1015.54 1015.61 1015.65 1015.65
1010.59 1010.61 1010.62 1010.63 1010.64 1010.66 1010.70 1010.74 1010.78 1010.81 1010.82 1010.80 1010.76 1010.71 1010.66 1010.63 1010.65 1010.73 1010.88 1011.12 1011.42 1011.77 1012.16 1012.57 1012.97 1013.33 1013.66 1013.93 1014.13 1014.28 1014.37 1014.43 1014.47 1014.51 1014.57 1014.65 1014.75 1014.86 1014.99 1015.09 1015.16 1015.20 1015.19
1010.39 1010.46 1010.53 1010.60 1010.66 1010.71 1010.74 1010.76 1010.77 1010.77 1010.75 1010.72 1010.66 1010.60 1010.53 1010.48 1010.44 1010.45 1010.52 1010.65 1010.86 1011.14 1011.48 1011.87 1012.28 1012.69 1013.07 1013.40 1013.66 1013.85 1013.98 1014.05 1014.09 1014.12 1014.17 1014.23 1014.31 1014.41 1014.51 1014.60 1014.66 1014.68 1014.66
1010.08 1010.21 1010.36 1010.51 1010.63 1010.72 1010.78 1010.80 1010.81 1010.79 1010.77 1010.73 1010.69 1010.63 1010.56 1010.48 1010.40 1010.34 1010.31 1010.33 1010.42 1010.59 1010.85 1011.18 1011.56 1011.98 1012.38 1012.76 1013.07 1013.32 1013.49 1013.60 1013.66 1013.71 1013.75 1013.80 1013.86 1013.94 1014.01 1014.07 1014.10 1014.10 1014.07
1009.70 1009.88 1010.10 1010.32 1010.51 1010.66 1010.76 1010.82 1010.84 1010.84 1010.84 1010.83 1010.81 1010.78 1010.73 1010.65 1010.54 1010.41 1010.28 1010.19 1010.15 1010.19 1010.32 1010.55 1010.87 1011.24 1011.64 1012.03 1012.39 1012.68 1012.90 1013.06 1013.17 1013.24 1013.30 1013.35 1013.40 1013.45 1013.48 1013.51 1013.50 1013.47 1013.42
1009.28 1009.50 1009.77 1010.05 1010.31 1010.52 1010.67 1010.77 1010.83 1010.87 1010.91 1010.95 1010.98 1011.00 1010.98 1010.91 1010.79 1010.62 1010.42 1010.22 1010.05 1009.95 1009.94 1010.04 1010.25 1010.55 1010.90 1011.28 1011.64 1011.97 1012.24 1012.46 1012.62 1012.73 1012.82 1012.88 1012.92 1012.95 1012.96 1012.94 1012.90 1012.85 1012.79
1008.87 1009.10 1009.40 1009.72 1010.02 1010.28 1010.48 1010.63 1010.74 1010.83 1010.92 1011.01 1011.11 1011.18 1011.22 1011.19 1011.08 1010.89 1010.64 1010.35 1010.07 1009.84 1009.69 1009.65 1009.73 1009.92 1010.19 1010.52 1010.87 1011.22 1011.53 1011.80 1012.01 1012.18 1012.31 1012.40 1012.45 1012.46 1012.45 1012.40 1012.34 1012.26 1012.19
1008.50 1008.72 1009.02 1009.34 1009.66 1009.95 1010.18 1010.36 1010.51 1010.65 1010.79 1010.94 1011.10 1011.24 1011.33 1011.35 1011.28 1011.10 1010.83 1010.49 1010.13 1009.79 1009.52 1009.35 1009.30 1009.37 1009.55 1009.82 1010.13 1010.47 1010.80 1011.11 1011.38 1011.60 1011.78 1011.90 1011.97 1011.99 1011.96 1011.90 1011.82 1011.73 1011.65
1008.18 1008.36 1008.62 1008.93 1009.23 1009.51 1009.75 1009.95 1010.13 1010.30 1010.48 1010.68 1010.89 1011.08 1011.23 1011.31 1011.28 1011.13 1010.87 1010.53 1010.13 1009.73 1009.38 1009.11 1008.95 1008.91 1008.99 1009.18 1009.44 1009.75 1010.08 1010.41 1010.72 1010.99 1011.21 1011.37 1011.47 1011.50 1011.48 1011.41 1011.32 1011.22 1011.14
1007.88 1008.00 1008.20 1008.45 1008.72 1008.98 1009.21 1009.41 1009.60 1009.78 1009.99 1010.22 1010.46 1010.70 1010.89 1011.02 1011.04 1010.94 1010.72 1010.40 1010.02 1009.60 1009.21 1008.88 1008.64 1008.52 1008.51 1008.62 1008.82 1009.08 1009.40 1009.73 1010.05 1010.35 1010.60 1010.79 1010.92 1010.97 1010.95 1010.89 1010.79 1010.69 1010.60
1007.55 1007.60 1007.74 1007.93 1008.14 1008.36 1008.56 1008.75 1008.94 1009.13 1009.35 1009.59 1009.85 1010.11 1010.34 1010.50 1010.58 1010.54 1010.38 1010.12 1009.78 1009.39 1009.01 1008.66 1008.38 1008.20 1008.13 1008.16 1008.29 1008.50 1008.77 1009.07 1009.38 1009.68 1009.94 1010.14 1010.28 1010.34 1010.33 1010.27 1010.17 1010.07 1009.97
1007.15 1007.15 1007.22 1007.35 1007.52 1007.69 1007.87 1008.05 1008.23 1008.42 1008.63 1008.87 1009.14 1009.41 1009.66 1009.86 1009.98 1010.00 1009.91 1009.73 1009.46 1009.13 1008.79 1008.47 1008.19 1007.98 1007.86 1007.83 1007.88 1008.02 1008.22 1008.46 1008.72 1008.98 1009.21 1009.39 1009.52 1009.57 1009.56 1009.50 1009.40 1009.29 1009.19
1006.69 1006.65 1006.67 1006.76 1006.88 1007.03 1007.19 1007.36 1007.54 1007.73 1007.94 1008.18 1008.45 1008.72 1008.98 1009.20 1009.36 1009.43 1009.42 1009.32 1009.13 1008.89 1008.62 1008.34 1008.09 1007.87 1007.72 1007.63 1007.61 1007.65 1007.76 1007.90 1008.08 1008.26 1008.42 1008.55 1008.64 1008.67 1008.64 1008.56 1008.46 1008.34 1008.23
1006.19 1006.12 1006.12 1006.18 1006.29 1006.43 1006.59 1006.76 1006.95 1007.15 1007.36 1007.61 1007.87 1008.14 1008.40 1008.64 1008.83 1008.95 1009.00 1008.98 1008.88 1008.73 1008.53 1008.32 1008.10 1007.89 1007.71 1007.57 1007.47 1007.42 1007.41 1007.44 1007.49 1007.55 1007.62 1007.66 1007.67 1007.64 1007.58 1007.48 1007.37 1007.24 1007.12
1005.68 1005.62 1005.62 1005.69 1005.80 1005.94 1006.11 1006.30 1006.50 1006.71 1006.95 1007.19 1007.46 1007.73 1007.99 1008.24 1008.45 1008.61 1008.71 1008.75 1008.73 1008.66 1008.55 1008.39 1008.22 1008.03 1007.84 1007.65 1007.48 1007.32 1007.19 1007.07 1006.98 1006.90 1006.83 1006.76 1006.67 1006.58 1006.46 1006.33 1006.20 1006.06 1005.94
1005.24 1005.20 1005.22 1005.30 1005.42 1005.58 1005.77 1005.97 1006.19 1006.42 1006.66 1006.92 1007.18 1007.45 1007.72 1007.97 1008.20 1008.39 1008.53 1008.62 1008.67 1008.67 1008.62 1008.53 1008.40 1008.23 1008.04 1007.81 1007.57 1007.32 1007.07 1006.82 1006.57 1006.34 1006.13 1005.92 1005.73 1005.54 1005.37 1005.20 1005.05 1004.91 1004.78
1004.90 1004.89 1004.93 1005.03 1005.17 1005.33 1005.53 1005.73 1005.96 1006.19 1006.44 1006.70 1006.97 1007.24 1007.51 1007.76 1008.00 1008.20 1008.37 1008.51 1008.60 1008.66 1008.67 1008.63 1008.55 1008.41 1008.22 1007.98 1007.69 1007.36 1007.00 1006.63 1006.25 1005.88 1005.53 1005.20 1004.90 1004.63 1004.39 1004.19 1004.02 1003.87 1003.74
1004.67 1004.69 1004.76 1004.86 1005.00 1005.16 1005.34 1005.53 1005.73 1005.95 1006.19 1006.44 1006.70 1006.97 1007.24 1007.49 1007.73 1007.95 1008.14 1008.30 1008.43 1008.52 1008.58 1008.60 1008.56 1008.45 1008.29 1008.04 1007.73 1007.36 1006.93 1006.47 1005.98 1005.50 1005.04 1004.60 1004.22 1003.88 1003.60 1003.37 1003.18 1003.02 1002.89
1004.54 1004.59 1004.66 1004.76 1004.87 1005.00 1005.14 1005.28 1005.45 1005.63 1005.83 1006.06 1006.30 1006.56 1006.81 1007.06 1007.30 1007.52 1007.72 1007.89 1008.05 1008.18 1008.27 1008.33 1008.33 1008.27 1008.13 1007.91 1007.61 1007.22 1006.76 1006.25 1005.71 1005.16 1004.63 1004.13 1003.69 1003.32 1003.01 1002.77 1002.57 1002.41 1002.26
1004.49 1004.54 1004.61 1004.68 1004.75 1004.82 1004.89 1004.97 1005.07 1005.19 1005.34 1005.53 1005.74 1005.96 1006.20 1006.44 1006.67 1006.88 1007.08 1007.26 1007.42 1007.57 1007.69 1007.77 1007.81 1007.79 1007.70 1007.52 1007.24 1006.87 1006.42 1005.91 1005.35 1004.79 1004.24 1003.73 1003.29 1002.91 1002.61 1002.37 1002.19 1002.02 1001.85
1004.47 1004.52 1004.56 1004.59 1004.61 1004.61 1004.60 1004.60 1004.62 1004.67 1004.75 1004.88 1005.05 1005.24 1005.45 1005.67 1005.87 1006.07 1006.25 1006.42 1006.57 1006.71 1006.84 1006.94 1007.01 1007.02 1006.96 1006.82 1006.59 1006.27 1005.86 1005.39 1004.87 1004.34 1003.83 1003.36 1002.95 1002.62 1002.36 1002.15 1001.98 1001.82 1001.63
1004.46 1004.49 1004.50 1004.49 1004.45 1004.38 1004.30 1004.22 1004.16 1004.13 1004.16 1004.23 1004.35 1004.50 1004.67 1004.85 1005.02 1005.19 1005.33 1005.47 1005.59 1005.71 1005.82 1005.91 1005.98 1006.00 1005.97 1005.87 1005.68 1005.42 1005.07 1004.67 1004.22 1003.77 1003.34 1002.96 1002.64 1002.38 1002.19 1002.05 1001.92 1001.78 1001.58
1004.43 1004.44 1004.42 1004.37 1004.28 1004.16 1004.02 1003.88 1003.77 1003.69 1003.66 1003.68 1003.76 1003.87 1004.00 1004.13 1004.26 1004.37 1004.46 1004.54 1004.61 1004.68 1004.74 1004.80 1004.84 1004.85 1004.83 1004.75 1004.60 1004.39 1004.11 1003.79 1003.45 1003.10 1002.79 1002.52 1002.31 1002.17 1002.08 1002.02 1001.96 1001.85 1001.65
1004.38 1004.36 1004.32 1004.25 1004.13 1003.98 1003.82 1003.65 1003.51 1003.40 1003.34 1003.34 1003.37 1003.44 1003.53 1003.61 1003.68 1003.73 1003.75 1003.76 1003.75 1003.74 1003.73 1003.73 1003.72 1003.70 1003.66 1003.58 1003.46 1003.29 1003.09 1002.85 1002.61 1002.38 1002.19 1002.06 1001.99 1001.98 1002.01 1002.05 1002.07 1002.01 1001.84
Thickness
5787 5786 5784 5783 5781 5779 5777 5776 5775 5774 5773 5772 5772 5771 5770 5770 5768 5767 5764 5762 5760 5758 5757 5755 5753 5751 5749 5747 5745 5744 5743 5741 5739 5737 5736 5735 5734 5733 5731 5730 5729 5728 5727
5788 5786 5784 5783 5782 5780 5778 5777 5776 5775 5774 5774 5773 5772 5771 5770 5769 5768 5765 5763 5761 5759 5757 5755 5753 5752 5750 5748 5746 5744 5743 5740 5739 5737 5737 5735 5734 5733 5732 5730 5729 5728 5727
5789 5787 5785 5783 5782 5781 5779 5777 5777 5776 5774 5774 5773 5773 5772 5771 5770 5768 5766 5764 5761 5759 5757 5756 5754 5752 5750 5748 5746 5744 5742 5741 5739 5737 5736 5735 5734 5733 5732 5730 5729 5727 5726
5790 5789 5786 5784 5784 5782 5779 5777 5776 5774 5773 5773 5772 5773 5773 5772 5771 5769 5767 5765 5762 5761 5758 5756 5754 5752 5750 5748 5746 5744 5742 5740 5739 5737 5736 5735 5734 5733 5731 5730 5728 5727 5726
5791 5789 5787 5786 5784 5782 5780 5779 5776 5774 5771 5771 5772 5772 5773 5772 5771 5770 5768 5766 5764 5762 5759 5757 5755 5752 5750 5749 5747 5744 5742 5740 5738 5737 5736 5734 5733 5732 5730 5729 5727 5726 5725
5791 5789 5788 5786 5785 5781 5779 5777 5776 5775 5773 5772 5772 5772 5772 5773 5771 5770 5769 5768 5766 5764 5761 5758 5755 5752 5751 5749 5747 5745 5743 5741 5738 5737 5735 5733 5732 5730 5729 5728 5727 5725 5724
5791 5789 5788 5786 5784 5781 5779 5778 5776 5773 5772 5772 5767 5765 5769 5772 5771 5770 5769 5767 5766 5765 5763 5759 5756 5753 5751 5749 5746 5744 5743 5741 5739 5736 5735 5733 5731 5729 5728 5726 5726 5725 5723
5791 5790 5787 5785 5783 5780 5778 5777 5775 5771 5771 5771 5764 5758 5756 5760 5766 5770 5768 5766 5765 5764 5763 5761 5758 5755 5752 5749 5746 5743 5741 5740 5738 5736 5734 5732 5730 5728 5727 5726 5725 5724 5723
5791 5789 5787 5785 5783 5781 5777 5775 5774 5770 5767 5768 5768 5760 5752 5749 5756 5763 5764 5764 5763 5761 5761 5760 5757 5755 5752 5749 5746 5743 5741 5739 5737 5735 5733 5731 5729 5728 5726 5725 5724 5723 5722
5790 5789 5787 5784 5782 5780 5777 5775 5774 5772 5768 5764 5765 5765 5762 5759 5751 5750 5756 5761 5761 5759 5758 5759 5757 5755 5751 5749 5746 5743 5740 5738 5735 5734 5732 5730 5729 5727 5725 5724 5723 5722 5720
5790 5788 5786 5783 5781 5779 5777 5775 5773 5771 5768 5765 5763 5762 5760 5759 5757 5749 5746 5751 5754 5756 5756 5756 5755 5754 5752 5749 5746 5742 5739 5737 5735 5733 5731 5729 5727 5726 5724 5723 5722 5721 5719
5788 5787 5785 5782 5780 5778 5776 5774 5772 5770 5767 5765 5763 5761 5758 5755 5753 5750 5745 5745 5746 5750 5754 5754 5754 5752 5751 5747 5745 5741 5738 5735 5733 5731 5729 5728 5726 5724 5723 5722 5721 5719 5718
5785 5784 5784 5781 5779 5777 5775 5774 5771 5769 5767 5764 5762 5760 5759 5758 5756 5753 5747 5744 5744 5747 5750 5751 5752 5750 5747 5744 5742 5740 5737 5734 5732 5730 5728 5726 5725 5723 5721 5720 5719 5718 5716
5784 5784 5783 5780 5778 5776 5775 5772 5770 5768 5766 5763 5762 5759 5757 5757 5756 5753 5749 5744 5739 5740 5742 5744 5748 5747 5745 5743 5739 5736 5734 5732 5730 5728 5726 5725 5724 5722 5720 5718 5717 5715 5714
5785 5783 5781 5779 5777 5775 5773 5771 5767 5765 5764 5761 5759 5757 5756 5755 5755 5753 5752 5748 5739 5732 5733 5739 5741 5744 5743 5740 5737 5734 5732 5730 5728 5726 5724 5723 5722 5721 5718 5717 5715 5713 5711
5782 5781 5779 5777 5775 5773 5771 5768 5765 5763 5760 5758 5757 5755 5753 5753 5752 5752 5750 5749 5745 5737 5731 5737 5739 5741 5739 5738 5734 5732 5730 5728 5726 5724 5722 5721 5719 5718 5717 5715 5713 5710 5707
5779 5777 5776 5774 5772 5770 5768 5765 5763 5761 5758 5755 5754 5752 5750 5750 5748 5748 5747 5746 5743 5739 5731 5734 5737 5737 5735 5734 5731 5729 5727 5725 5723 5721 5719 5718 5716 5715 5714 5711 5709 5706 5704
5777 5775 5774 5772 5770 5768 5765 5763 5759 5757 5755 5752 5750 5748 5746 5746 5744 5743 5742 5741 5739 5737 5732 5728 5730 5731 5730 5730 5728 5726 5725 5724 5720 5718 5716 5714 5713 5711 5710 5707 5705 5702 5699
5775 5773 5771 5769 5766 5765 5762 5760 5758 5755 5753 5751 5748 5745 5743 5741 5738 5738 5737 5736 5735 5735 5732 5727 5725 5726 5726 5726 5723 5722 5721 5719 5718 5715 5712 5710 5709 5707 5705 5703 5700 5698 5695
5772 5770 5769 5767 5765 5762 5760 5757 5755 5752 5750 5748 5745 5743 5740 5738 5735 5734 5733 5731 5730 5728 5726 5723 5721 5720 5720 5720 5717 5714 5713 5713 5712 5712 5708 5706 5704 5702 5700 5698 5697 5694 5692
5770 5767 5765 5764 5763 5760 5757 5753 5750 5749 5746 5744 5742 5739 5737 5735 5732 5730 5728 5725 5724 5721 5719 5716 5714 5713 5712 5711 5709 5710 5708 5707 5707 5707 5703 5702 5700 5698 5695 5694 5692 5690 5688
5765 5763 5761 5759 5757 5756 5752 5749 5747 5744 5742 5739 5737 5734 5732 5731 5728 5725 5722 5721 5719 5716 5713 5710 5708 5706 5706 5707 5706 5705 5702 5699 5698 5703 5699 5697 5697 5694 5693 5691 5689 5686 5684
5759 5758 5756 5754 5752 5749 5747 5744 5742 5740 5738 5736 5733 5730 5729 5728 5723 5720 5718 5716 5714 5713 5710 5707 5704 5703 5703 5703 5701 5698 5697 5695 5693 5696 5695 5691 5692 5690 5689 5688 5685 5683 5680
5755 5753 5751 5750 5748 5745 5742 5740 5737 5735 5734 5732 5730 5727 5724 5721 5718 5714 5713 5711 5710 5709 5707 5705 5703 5703 5702 5700 5698 5695 5693 5692 5692 5692 5691 5686 5687 5685 5685 5683 5681 5679 5675
5749 5748 5747 5746 5743 5740 5738 5735 5732 5731 5728 5727 5725 5723 5720 5716 5713 5710 5707 5705 5704 5703 5703 5702 5701 5699 5698 5696 5694 5690 5687 5684 5682 5683 5685 5681 5680 5679 5678 5676 5674 5673 5669
5744 5743 5742 5741 5739 5736 5733 5730 5727 5726 5722 5721 5719 5717 5713 5710 5707 5704 5702 5699 5696 5697 5697 5696 5695 5695 5694 5692 5690 5686 5683 5679 5677 5676 5678 5675 5673 5671 5668 5669 5667 5665 5662